User: anonymous   Login
Location: Cypress Hills Dark-Sky Preserve - CHICO
(49.6176°N, 110.2634°W)
Time: 11:11:54
(UTC-07:00)
Language:

SPOT 5 - Orbit

View from above orbital plane
View from above orbital plane
View from above satellite
View from above satellite

Ground track
Ground track

The orbit data is extracted from the following two-line orbital elements,

1 27421U 02021A   15027.76275314 -.00000031  00000-0  51764-5 0  3471
2 27421 098.5328 088.4136 0000948 100.6206 005.5699 14.20119126660192
Epoch (UTC): 27 January 2015 18:18:21
Eccentricity: 0.0000948
inclination: 98.5328°
perigee height: 824 km
apogee height: 825 km
right ascension of ascending node: 88.4136°
argument of perigee: 100.6206°
revolutions per day: 14.20119126
mean anomaly at epoch: 5.5699°
orbit number at epoch: 66019

The dashed part of the orbit path shows where the satellite is in the earth's shadow,  

DLR